EN

Hourly Weather Almese

Today, 21 January, Thursday

Time Temperature Precipitation Wind Pressure Humidity
00:00 0°C° 0 mm 0 mps 702 mmHg 84%
01:00 0°C° 0 mm 0 mps 702 mmHg 84%
02:00 0°C° 0 mm 0 mps 701 mmHg 84%
03:00 0°C° 0 mm 0 mps 701 mmHg 84%
04:00 0°C° 0 mm 0 mps 701 mmHg 84%
05:00 0°C° 0 mm 0 mps 701 mmHg 84%
06:00 +1°C° 0 mm 1 mps 701 mmHg 84%
07:00 +1°C° 0 mm 0 mps 701 mmHg 82%
08:00 +1°C° 0 mm 0 mps 702 mmHg 80%
09:00 +2°C° 0 mm 0 mps 702 mmHg 78%
10:00 +3°C° 0 mm 0 mps 701 mmHg 79%
11:00 +5°C° 0 mm 1 mps 701 mmHg 79%
12:00 +5°C° 0 mm 1 mps 701 mmHg 80%
13:00 +5°C° 0 mm 1 mps 700 mmHg 83%
14:00 +4°C° 0 mm 0 mps 700 mmHg 85%
15:00 +4°C° 0 mm 0 mps 700 mmHg 88%
16:00 +3°C° 0 mm 0 mps 699 mmHg 89%
17:00 +3°C° 0 mm 0 mps 699 mmHg 89%
18:00 +3°C° 0 mm 0 mps 699 mmHg 90%
19:00 +2°C° 0.1 mm 0 mps 698 mmHg 90%
20:00 +2°C° 0.1 mm 0 mps 698 mmHg 90%
21:00 +2°C° 0.1 mm 0 mps 697 mmHg 90%
22:00 +2°C° 0.1 mm 0 mps 697 mmHg 90%
23:00 +2°C° 0.1 mm 0 mps 697 mmHg 90%

Tomorrow, 22 January, Friday

Time Temperature Precipitation Wind Pressure Humidity
00:00 +2°C° 0.1 mm 0 mps 697 mmHg 90%
01:00 +2°C° 0 mm 0 mps 696 mmHg 90%
02:00 +2°C° 0 mm 0 mps 695 mmHg 90%
03:00 +3°C° 0 mm 1 mps 695 mmHg 89%
04:00 +2°C° 0 mm 1 mps 695 mmHg 88%
05:00 +2°C° 0 mm 1 mps 694 mmHg 87%
06:00 +2°C° 0 mm 1 mps 694 mmHg 85%
07:00 +3°C° 0 mm 1 mps 694 mmHg 85%
08:00 +3°C° 0 mm 1 mps 693 mmHg 84%
09:00 +3°C° 0 mm 0 mps 693 mmHg 84%
10:00 +4°C° 0 mm 1 mps 692 mmHg 85%
11:00 +5°C° 0 mm 1 mps 691 mmHg 86%
12:00 +5°C° 0 mm 1 mps 690 mmHg 88%
13:00 +5°C° 1 mm 1 mps 689 mmHg 90%
14:00 +4°C° 1 mm 1 mps 688 mmHg 92%
15:00 +4°C° 1 mm 1 mps 687 mmHg 94%
16:00 +4°C° 0.7 mm 1 mps 687 mmHg 94%
17:00 +4°C° 0.7 mm 1 mps 687 mmHg 93%
18:00 +4°C° 0.7 mm 1 mps 687 mmHg 92%
19:00 +4°C° 0.5 mm 1 mps 687 mmHg 90%
20:00 +3°C° 0.5 mm 2 mps 687 mmHg 88%
21:00 +3°C° 0.5 mm 2 mps 687 mmHg 86%
22:00 +2°C° 0.1 mm 3 mps 688 mmHg 83%
23:00 +1°C° 0.1 mm 3 mps 688 mmHg 80%

Day after tomorrow, 23 January, Saturday

Time Temperature Precipitation Wind Pressure Humidity
00:00 +1°C° 0.1 mm 3 mps 688 mmHg 77%
01:00 0°C° 0 mm 4 mps 688 mmHg 73%
02:00 -1°C° 0 mm 4 mps 689 mmHg 70%
03:00 -1°C° 0 mm 4 mps 689 mmHg 66%
04:00 -1°C° 0 mm 4 mps 689 mmHg 64%
05:00 -2°C° 0 mm 4 mps 689 mmHg 62%
06:00 -2°C° 0 mm 4 mps 690 mmHg 59%
07:00 -1°C° 0 mm 4 mps 690 mmHg 58%
08:00 0°C° 0 mm 3 mps 690 mmHg 57%
09:00 +1°C° 0 mm 3 mps 690 mmHg 56%
10:00 +2°C° 0 mm 3 mps 690 mmHg 54%
11:00 +4°C° 0 mm 2 mps 690 mmHg 53%
12:00 +5°C° 0 mm 2 mps 690 mmHg 52%
13:00 +5°C° 0 mm 2 mps 689 mmHg 55%
14:00 +6°C° 0 mm 1 mps 688 mmHg 58%
15:00 +5°C° 0 mm 1 mps 688 mmHg 61%
16:00 +4°C° 0 mm 1 mps 688 mmHg 62%
17:00 +2°C° 0 mm 2 mps 689 mmHg 63%
18:00 +1°C° 0 mm 2 mps 689 mmHg 64%
19:00 +1°C° 0 mm 2 mps 689 mmHg 64%
20:00 0°C° 0 mm 3 mps 690 mmHg 64%
21:00 -1°C° 0 mm 3 mps 690 mmHg 64%
22:00 -1°C° 0 mm 3 mps 691 mmHg 64%
23:00 -2°C° 0 mm 3 mps 691 mmHg 63%

24 January, Sunday

Time Temperature Precipitation Wind Pressure Humidity
00:00 -2°C° 0 mm 3 mps 691 mmHg 62%
01:00 -2°C° 0 mm 3 mps 692 mmHg 63%
02:00 -4°C° 0 mm 3 mps 692 mmHg 63%
03:00 -4°C° 0 mm 3 mps 692 mmHg 63%
04:00 -4°C° 0 mm 3 mps 692 mmHg 63%
05:00 -4°C° 0 mm 3 mps 692 mmHg 62%
06:00 -4°C° 0 mm 3 mps 692 mmHg 62%
07:00 -2°C° 0 mm 3 mps 693 mmHg 59%
08:00 -1°C° 0 mm 3 mps 693 mmHg 55%
09:00 -1°C° 0 mm 2 mps 693 mmHg 51%
10:00 +2°C° 0 mm 2 mps 693 mmHg 48%
11:00 +3°C° 0 mm 2 mps 693 mmHg 46%
12:00 +5°C° 0 mm 1 mps 693 mmHg 43%
13:00 +5°C° 0 mm 1 mps 693 mmHg 47%
14:00 +4°C° 0 mm 1 mps 693 mmHg 51%
15:00 +4°C° 0 mm 1 mps 692 mmHg 56%
16:00 +3°C° 0.1 mm 1 mps 693 mmHg 60%
17:00 +2°C° 0.1 mm 1 mps 693 mmHg 63%
18:00 -1°C° 0.1 mm 2 mps 694 mmHg 67%
19:00 -1°C° 0.1 mm 2 mps 694 mmHg 66%
20:00 -2°C° 0.1 mm 2 mps 694 mmHg 66%
21:00 -2°C° 0.1 mm 2 mps 694 mmHg 65%
22:00 -3°C° 0 mm 2 mps 694 mmHg 65%
23:00 -3°C° 0 mm 2 mps 694 mmHg 64%

25 January, Monday

Time Temperature Precipitation Wind Pressure Humidity
00:00 -4°C° 0 mm 3 mps 695 mmHg 64%
01:00 -4°C° 0.1 mm 3 mps 695 mmHg 64%
02:00 -4°C° 0.1 mm 3 mps 695 mmHg 63%
03:00 -4°C° 0.1 mm 3 mps 696 mmHg 63%
04:00 -4°C° 0 mm 3 mps 696 mmHg 61%
05:00 -4°C° 0 mm 3 mps 697 mmHg 59%
06:00 -4°C° 0 mm 4 mps 697 mmHg 58%
07:00 -4°C° 0 mm 3 mps 698 mmHg 56%
08:00 -2°C° 0 mm 3 mps 699 mmHg 54%
09:00 -1°C° 0 mm 3 mps 699 mmHg 53%
10:00 0°C° 0 mm 3 mps 700 mmHg 50%
11:00 +1°C° 0 mm 3 mps 700 mmHg 47%
12:00 +3°C° 0 mm 3 mps 700 mmHg 44%
13:00 +2°C° 0.1 mm 3 mps 700 mmHg 47%
14:00 +2°C° 0.1 mm 3 mps 701 mmHg 51%
15:00 +2°C° 0.1 mm 3 mps 701 mmHg 55%
16:00 +1°C° 0.1 mm 3 mps 701 mmHg 57%
17:00 0°C° 0.1 mm 3 mps 702 mmHg 58%
18:00 -3°C° 0.1 mm 4 mps 702 mmHg 60%
19:00 -3°C° 0 mm 4 mps 703 mmHg 58%
20:00 -3°C° 0 mm 4 mps 703 mmHg 57%
21:00 -4°C° 0 mm 4 mps 704 mmHg 55%
22:00 -4°C° 0 mm 4 mps 704 mmHg 54%
23:00 -4°C° 0 mm 4 mps 704 mmHg 54%

26 January, Tuesday

Time Temperature Precipitation Wind Pressure Humidity
00:00 -4°C° 0 mm 4 mps 704 mmHg 53%
01:00 -4°C° 0 mm 3 mps 704 mmHg 51%
02:00 -4°C° 0 mm 3 mps 704 mmHg 48%
03:00 -4°C° 0 mm 3 mps 704 mmHg 46%
04:00 -4°C° 0 mm 3 mps 704 mmHg 45%
05:00 -4°C° 0 mm 3 mps 704 mmHg 44%
06:00 -4°C° 0 mm 3 mps 704 mmHg 42%
07:00 -2°C° 0 mm 2 mps 704 mmHg 43%
08:00 -1°C° 0 mm 2 mps 704 mmHg 43%
09:00 +1°C° 0 mm 2 mps 704 mmHg 43%
10:00 +3°C° 0 mm 1 mps 704 mmHg 43%
11:00 +5°C° 0 mm 1 mps 704 mmHg 43%
12:00 +6°C° 0 mm 1 mps 703 mmHg 43%
13:00 +5°C° 0 mm 1 mps 703 mmHg 48%
14:00 +5°C° 0 mm 1 mps 702 mmHg 52%
15:00 +4°C° 0 mm 0 mps 702 mmHg 56%
16:00 +4°C° 0.4 mm 1 mps 702 mmHg 59%
17:00 +4°C° 0.4 mm 1 mps 701 mmHg 62%
18:00 +3°C° 0.4 mm 1 mps 701 mmHg 65%
19:00 +3°C° 0.5 mm 1 mps 701 mmHg 67%
20:00 +3°C° 0.5 mm 1 mps 701 mmHg 68%
21:00 +3°C° 0.5 mm 1 mps 701 mmHg 69%
22:00 +2°C° 0.2 mm 1 mps 701 mmHg 70%
23:00 +2°C° 0.2 mm 1 mps 700 mmHg 70%
Show more